Time,TemperatureF,DewpointF,PressureIn,WindDirection,WindDirectionDegrees,WindSpeedMPH,WindSpeedGustMPH,Humidity,HourlyPrecipIn,Conditions,Clouds,dailyrainin,SoftwareType,DateUTC
2013-05-22 00:01:00,70.6,68.8,29.94,NE,36,4.0,4.0,94,0.00,CLR,,0.00,WeatherDisplay:10.37,2013-05-22 04:01:00,
2013-05-22 00:02:00,70.5,68.7,29.94,NE,49,4.0,4.0,94,0.00,CLR,,0.00,WeatherDisplay:10.37,2013-05-22 04:02:00,
2013-05-22 00:04:00,70.5,68.7,29.94,NE,43,3.5,3.5,94,0.00,CLR,,0.00,WeatherDisplay:10.37,2013-05-22 04:04:00,
2013-05-22 00:09:00,70.5,68.7,29.94,NE,40,2.3,2.3,94,0.00,CLR,,0.00,WeatherDisplay:10.37,2013-05-22 04:09:00,
2013-05-22 00:14:00,70.5,68.7,29.94,NE,46,2.3,2.3,94,0.00,CLR,,0.00,WeatherDisplay:10.37,2013-05-22 04:14:00,
2013-05-22 00:19:00,70.5,68.7,29.94,NE,46,2.3,2.3,94,0.00,CLR,,0.00,WeatherDisplay:10.37,2013-05-22 04:19:00,
2013-05-22 00:24:00,70.4,68.6,29.94,North,350,2.3,2.3,94,0.00,CLR,,0.00,WeatherDisplay:10.37,2013-05-22 04:24:00,
2013-05-22 00:29:00,70.3,68.5,29.93,North,4,3.5,3.5,94,0.00,CLR,,0.00,WeatherDisplay:10.37,2013-05-22 04:29:00,
2013-05-22 00:34:00,70.2,68.4,29.93,North,356,1.2,1.2,94,0.00,CLR,,0.00,WeatherDisplay:10.37,2013-05-22 04:34:00,
2013-05-22 00:39:00,70.0,68.2,29.93,North,8,3.5,3.5,94,0.00,CLR,,0.00,WeatherDisplay:10.37,2013-05-22 04:39:00,
2013-05-22 00:44:00,69.9,68.4,29.93,NNE,15,3.5,3.5,95,0.00,CLR,,0.00,WeatherDisplay:10.37,2013-05-22 04:44:00,
2013-05-22 00:50:00,69.8,68.3,29.93,NNE,16,5.8,5.8,95,0.00,CLR,,0.00,WeatherDisplay:10.37,2013-05-22 04:50:00,
2013-05-22 00:55:00,69.7,68.2,29.93,NNE,29,6.9,6.9,95,0.00,CLR,,0.00,WeatherDisplay:10.37,2013-05-22 04:55:00,
2013-05-22 01:00:00,69.7,68.2,29.93,NNE,25,4.6,4.6,95,0.00,CLR,,0.00,WeatherDisplay:10.37,2013-05-22 05:00:00,
2013-05-22 01:05:00,69.6,68.1,29.93,NNE,30,5.8,5.8,95,0.00,CLR,,0.00,WeatherDisplay:10.37,2013-05-22 05:05:00,
2013-05-22 01:11:00,69.6,68.1,29.93,NE,35,3.5,3.5,95,0.00,CLR,,0.00,WeatherDisplay:10.37,2013-05-22 05:11:00,
2013-05-22 01:16:00,69.6,68.1,29.93,NNE,19,4.6,4.6,95,0.00,CLR,,0.00,WeatherDisplay:10.37,2013-05-22 05:16:00,
2013-05-22 01:21:00,69.5,68.0,29.92,NNE,15,5.0,5.0,95,0.00,CLR,,0.00,WeatherDisplay:10.37,2013-05-22 05:21:00,
2013-05-22 01:26:00,69.4,67.9,29.92,NE,45,6.9,6.9,95,0.00,CLR,,0.00,WeatherDisplay:10.37,2013-05-22 05:26:00,
2013-05-22 01:31:00,69.5,68.0,29.93,NNE,23,4.6,4.6,95,0.00,CLR,,0.00,WeatherDisplay:10.37,2013-05-22 05:31:00,
2013-05-22 01:36:00,69.4,67.9,29.92,North,5,5.0,5.0,95,0.00,CLR,,0.00,WeatherDisplay:10.37,2013-05-22 05:36:00,
2013-05-22 01:41:00,69.3,67.8,29.92,NE,40,4.6,4.6,95,0.00,CLR,,0.00,WeatherDisplay:10.37,2013-05-22 05:41:00,
2013-05-22 01:46:00,69.2,68.0,29.92,NNE,23,4.0,4.0,96,0.00,CLR,,0.00,WeatherDisplay:10.37,2013-05-22 05:46:00,
2013-05-22 01:51:00,69.2,68.0,29.92,NNE,31,3.5,3.5,96,0.00,CLR,,0.00,WeatherDisplay:10.37,2013-05-22 05:51:00,
2013-05-22 01:57:00,69.2,68.0,29.92,NNE,25,5.0,5.0,96,0.00,CLR,,0.00,WeatherDisplay:10.37,2013-05-22 05:57:00,
2013-05-22 02:02:00,69.2,68.0,29.92,NE,44,4.6,4.6,96,0.00,CLR,,0.00,WeatherDisplay:10.37,2013-05-22 06:02:00,
2013-05-22 02:07:00,69.1,67.9,29.92,NNE,33,4.6,4.6,96,0.00,CLR,,0.00,WeatherDisplay:10.37,2013-05-22 06:07:00,
2013-05-22 02:12:00,69.2,68.0,29.92,NNE,19,4.0,4.0,96,0.00,CLR,,0.00,WeatherDisplay:10.37,2013-05-22 06:12:00,
2013-05-22 02:17:00,69.2,68.0,29.92,North,360,5.8,5.8,96,0.00,CLR,,0.00,WeatherDisplay:10.37,2013-05-22 06:17:00,
2013-05-22 02:22:00,69.1,67.9,29.92,NNW,340,3.5,3.5,96,0.00,CLR,,0.00,WeatherDisplay:10.37,2013-05-22 06:22:00,
2013-05-22 02:28:00,69.1,67.9,29.92,NNE,15,5.8,5.8,96,0.00,CLR,,0.00,WeatherDisplay:10.37,2013-05-22 06:28:00,
2013-05-22 02:33:00,69.2,68.0,29.92,NE,36,4.6,4.6,96,0.00,CLR,,0.00,WeatherDisplay:10.37,2013-05-22 06:33:00,
2013-05-22 02:38:00,69.2,68.0,29.92,NNE,33,3.5,3.5,96,0.00,CLR,,0.00,WeatherDisplay:10.37,2013-05-22 06:38:00,
2013-05-22 02:43:00,69.4,68.2,29.92,North,9,3.0,3.0,96,0.00,CLR,,0.00,WeatherDisplay:10.37,2013-05-22 06:43:00,
2013-05-22 02:48:00,69.4,68.2,29.92,North,9,3.5,3.5,96,0.00,CLR,,0.00,WeatherDisplay:10.37,2013-05-22 06:48:00,
2013-05-22 02:53:00,69.5,68.3,29.92,NE,44,4.0,4.0,96,0.00,CLR,,0.00,WeatherDisplay:10.37,2013-05-22 06:53:00,
2013-05-22 02:59:00,69.6,68.4,29.92,NNE,26,5.8,5.8,96,0.00,CLR,,0.00,WeatherDisplay:10.37,2013-05-22 06:59:00,
2013-05-22 03:04:00,69.6,68.4,29.92,NNE,26,4.6,4.6,96,0.00,CLR,,0.00,WeatherDisplay:10.37,2013-05-22 07:04:00,
2013-05-22 03:09:00,69.7,68.5,29.91,North,358,3.5,3.5,96,0.00,CLR,,0.00,WeatherDisplay:10.37,2013-05-22 07:09:00,
2013-05-22 03:14:00,69.7,68.5,29.91,NE,47,3.5,3.5,96,0.00,CLR,,0.00,WeatherDisplay:10.37,2013-05-22 07:14:00,
2013-05-22 03:19:00,69.8,68.6,29.91,NE,47,4.0,4.0,96,0.00,CLR,,0.00,WeatherDisplay:10.37,2013-05-22 07:19:00,
2013-05-22 03:24:00,69.9,68.7,29.91,NNE,29,3.5,3.6,96,0.00,CLR,,0.00,WeatherDisplay:10.37,2013-05-22 07:24:00,
2013-05-22 03:30:00,70.1,68.9,29.91,NNE,29,3.5,3.5,96,0.00,CLR,,0.00,WeatherDisplay:10.37,2013-05-22 07:30:00,
2013-05-22 03:35:00,70.1,68.9,29.91,NE,39,3.5,3.5,96,0.00,CLR,,0.00,WeatherDisplay:10.37,2013-05-22 07:35:00,
2013-05-22 03:40:00,70.2,69.0,29.91,NE,49,3.0,3.0,96,0.00,CLR,,0.00,WeatherDisplay:10.37,2013-05-22 07:40:00,
2013-05-22 03:45:00,70.3,69.4,29.91,NE,45,5.0,5.0,97,0.00,CLR,,0.00,WeatherDisplay:10.37,2013-05-22 07:45:00,
2013-05-22 03:50:00,70.4,69.5,29.91,ENE,59,4.6,4.6,97,0.00,CLR,,0.00,WeatherDisplay:10.37,2013-05-22 07:50:00,
2013-05-22 03:56:00,70.4,69.5,29.91,NE,54,3.5,3.5,97,0.00,CLR,,0.00,WeatherDisplay:10.37,2013-05-22 07:56:00,
2013-05-22 04:01:00,70.4,69.2,29.91,NE,46,3.5,3.5,96,0.00,CLR,,0.00,WeatherDisplay:10.37,2013-05-22 08:01:00,
2013-05-22 04:06:00,70.4,69.5,29.91,ENE,68,3.5,3.5,97,0.00,CLR,,0.00,WeatherDisplay:10.37,2013-05-22 08:06:00,
2013-05-22 04:11:00,70.4,69.5,29.90,NE,49,3.5,3.5,97,0.00,CLR,,0.00,WeatherDisplay:10.37,2013-05-22 08:11:00,
2013-05-22 04:16:00,70.4,69.5,29.90,NE,55,5.8,5.8,97,0.00,CLR,,0.00,WeatherDisplay:10.37,2013-05-22 08:16:00,
2013-05-22 04:21:00,70.4,69.5,29.90,NE,47,3.5,3.5,97,0.00,CLR,,0.00,WeatherDisplay:10.37,2013-05-22 08:21:00,
2013-05-22 04:26:00,70.4,69.5,29.90,NE,39,3.5,3.5,97,0.00,CLR,,0.00,WeatherDisplay:10.37,2013-05-22 08:26:00,
2013-05-22 04:32:00,70.5,69.6,29.90,NE,41,3.5,3.5,97,0.00,CLR,,0.00,WeatherDisplay:10.37,2013-05-22 08:32:00,
2013-05-22 04:37:00,70.5,69.6,29.90,NE,41,2.3,2.3,97,0.00,CLR,,0.00,WeatherDisplay:10.37,2013-05-22 08:37:00,
2013-05-22 04:42:00,70.6,69.7,29.90,NE,44,3.5,3.5,97,0.00,CLR,,0.00,WeatherDisplay:10.37,2013-05-22 08:42:00,
2013-05-22 04:47:00,70.6,69.7,29.90,NE,53,3.0,3.0,97,0.00,CLR,,0.00,WeatherDisplay:10.37,2013-05-22 08:47:00,
2013-05-22 04:52:00,70.6,69.7,29.90,NE,34,4.0,4.0,97,0.00,CLR,,0.00,WeatherDisplay:10.37,2013-05-22 08:52:00,
2013-05-22 04:57:00,70.6,69.7,29.90,NE,53,3.5,3.5,97,0.00,CLR,,0.00,WeatherDisplay:10.37,2013-05-22 08:57:00,
2013-05-22 05:02:00,70.6,69.7,29.90,NE,49,3.5,3.5,97,0.00,CLR,,0.00,WeatherDisplay:10.37,2013-05-22 09:02:00,
2013-05-22 05:07:00,70.7,69.8,29.90,NE,47,3.5,3.5,97,0.00,CLR,,0.00,WeatherDisplay:10.37,2013-05-22 09:07:00,
2013-05-22 05:13:00,70.7,69.8,29.90,NE,41,2.3,2.3,97,0.00,CLR,,0.00,WeatherDisplay:10.37,2013-05-22 09:13:00,
2013-05-22 05:18:00,70.7,69.8,29.91,NE,44,3.5,3.5,97,0.00,CLR,,0.00,WeatherDisplay:10.37,2013-05-22 09:18:00,
2013-05-22 05:23:00,70.6,69.7,29.91,NE,53,3.5,3.5,97,0.00,CLR,,0.00,WeatherDisplay:10.37,2013-05-22 09:23:00,
2013-05-22 05:28:00,70.6,69.7,29.91,NNE,33,3.5,3.5,97,0.00,CLR,,0.00,WeatherDisplay:10.37,2013-05-22 09:28:00,
2013-05-22 05:33:00,70.6,69.7,29.91,NE,44,3.5,3.5,97,0.00,CLR,,0.00,WeatherDisplay:10.37,2013-05-22 09:33:00,
2013-05-22 05:38:00,70.6,69.7,29.91,NE,54,3.5,3.5,97,0.00,CLR,,0.00,WeatherDisplay:10.37,2013-05-22 09:38:00,
2013-05-22 05:44:00,70.6,69.7,29.91,ENE,57,3.5,3.5,97,0.00,CLR,,0.00,WeatherDisplay:10.37,2013-05-22 09:44:00,
2013-05-22 05:49:00,70.6,69.7,29.91,NE,43,3.5,3.5,97,0.00,CLR,,0.00,WeatherDisplay:10.37,2013-05-22 09:49:00,
2013-05-22 05:54:00,70.6,69.7,29.91,NE,47,3.5,3.5,97,0.00,CLR,,0.00,WeatherDisplay:10.37,2013-05-22 09:54:00,
2013-05-22 05:59:00,70.6,69.7,29.91,East,87,2.3,2.3,97,0.00,CLR,,0.00,WeatherDisplay:10.37,2013-05-22 09:59:00,
2013-05-22 06:04:00,70.6,69.7,29.91,East,86,0.0,0.0,97,0.00,CLR,,0.00,WeatherDisplay:10.37,2013-05-22 10:04:00,
2013-05-22 06:10:00,70.6,69.7,29.91,East,82,2.3,2.3,97,0.00,CLR,,0.00,WeatherDisplay:10.37,2013-05-22 10:10:00,
2013-05-22 06:15:00,70.6,69.7,29.91,East,82,2.3,2.3,97,0.00,CLR,,0.00,WeatherDisplay:10.37,2013-05-22 10:15:00,
2013-05-22 06:20:00,70.5,69.6,29.91,ENE,71,1.2,1.2,97,0.00,CLR,,0.00,WeatherDisplay:10.37,2013-05-22 10:20:00,
2013-05-22 06:25:00,70.4,69.5,29.91,ENE,71,1.2,1.2,97,0.00,CLR,,0.00,WeatherDisplay:10.37,2013-05-22 10:25:00,
2013-05-22 06:31:00,70.4,69.5,29.91,ENE,63,0.0,0.0,97,0.00,CLR,,0.00,WeatherDisplay:10.37,2013-05-22 10:31:00,
2013-05-22 06:36:00,70.3,69.4,29.91,East,84,0.0,0.0,97,0.00,CLR,,0.00,WeatherDisplay:10.37,2013-05-22 10:36:00,
2013-05-22 06:41:00,70.3,69.4,29.91,North,4,0.0,0.0,97,0.00,CLR,,0.00,WeatherDisplay:10.37,2013-05-22 10:41:00,
2013-05-22 06:46:00,70.4,69.5,29.91,NNW,333,0.0,0.0,97,0.00,CLR,,0.00,WeatherDisplay:10.37,2013-05-22 10:46:00,
2013-05-22 06:51:00,70.4,69.5,29.91,NNW,333,0.0,0.0,97,0.00,CLR,,0.00,WeatherDisplay:10.37,2013-05-22 10:51:00,
2013-05-22 06:56:00,70.6,69.7,29.91,NNW,333,0.0,0.0,97,0.00,CLR,,0.00,WeatherDisplay:10.37,2013-05-22 10:56:00,
2013-05-22 07:01:00,70.9,70.0,29.92,NNW,333,0.0,0.0,97,0.00,CLR,,0.00,WeatherDisplay:10.37,2013-05-22 11:01:00,
2013-05-22 07:07:00,71.2,70.3,29.92,NNW,333,0.0,0.0,97,0.00,CLR,,0.00,WeatherDisplay:10.37,2013-05-22 11:07:00,
2013-05-22 07:12:00,71.5,70.6,29.92,NNW,333,0.0,0.0,97,0.00,CLR,,0.00,WeatherDisplay:10.37,2013-05-22 11:12:00,
2013-05-22 07:17:00,71.7,70.5,29.92,NE,47,0.0,0.0,96,0.00,CLR,,0.00,WeatherDisplay:10.37,2013-05-22 11:17:00,
2013-05-22 07:22:00,72.0,70.8,29.92,NE,47,0.0,0.0,96,0.00,CLR,,0.00,WeatherDisplay:10.37,2013-05-22 11:22:00,
2013-05-22 07:27:00,72.3,71.1,29.92,NE,36,3.5,3.5,96,0.00,CLR,,0.00,WeatherDisplay:10.37,2013-05-22 11:27:00,
2013-05-22 07:32:00,72.6,71.4,29.92,NE,46,2.3,2.3,96,0.00,CLR,,0.00,WeatherDisplay:10.37,2013-05-22 11:32:00,
2013-05-22 07:37:00,73.1,71.6,29.92,NNE,22,0.0,0.0,95,0.00,CLR,,0.00,WeatherDisplay:10.37,2013-05-22 11:37:00,
2013-05-22 07:43:00,73.4,71.6,29.92,NNE,23,3.5,3.5,94,0.00,CLR,,0.00,WeatherDisplay:10.37,2013-05-22 11:43:00,
2013-05-22 07:48:00,73.5,71.7,29.92,NE,43,4.0,4.0,94,0.00,CLR,,0.00,WeatherDisplay:10.37,2013-05-22 11:48:00,
2013-05-22 07:53:00,73.7,71.9,29.92,NE,34,2.3,2.3,94,0.00,CLR,,0.00,WeatherDisplay:10.37,2013-05-22 11:53:00,
2013-05-22 07:58:00,74.0,71.8,29.92,NE,41,4.6,4.6,93,0.00,CLR,,0.00,WeatherDisplay:10.37,2013-05-22 11:58:00,
2013-05-22 08:03:00,74.1,71.9,29.92,ENE,57,3.5,3.5,93,0.00,CLR,,0.00,WeatherDisplay:10.37,2013-05-22 12:03:00,
2013-05-22 08:08:00,74.6,72.1,29.93,ENE,68,3.5,3.5,92,0.00,CLR,,0.00,WeatherDisplay:10.37,2013-05-22 12:08:00,
2013-05-22 08:13:00,74.9,72.4,29.93,ENE,58,3.5,3.5,92,0.00,CLR,,0.00,WeatherDisplay:10.37,2013-05-22 12:13:00,
2013-05-22 08:18:00,75.3,72.8,29.93,NNE,30,2.3,2.3,92,0.00,CLR,,0.00,WeatherDisplay:10.37,2013-05-22 12:18:00,
2013-05-22 08:24:00,76.0,73.2,29.93,NE,45,2.0,2.0,91,0.00,CLR,,0.00,WeatherDisplay:10.37,2013-05-22 12:24:00,
2013-05-22 08:29:00,76.2,73.1,29.93,NE,44,3.5,3.5,90,0.00,CLR,,0.00,WeatherDisplay:10.37,2013-05-22 12:29:00,
2013-05-22 08:34:00,76.5,73.3,29.93,ENE,65,3.5,3.5,90,0.00,CLR,,0.00,WeatherDisplay:10.37,2013-05-22 12:34:00,
2013-05-22 08:39:00,76.9,73.4,29.93,ENE,70,3.5,3.5,89,0.00,CLR,,0.00,WeatherDisplay:10.37,2013-05-22 12:39:00,
2013-05-22 08:44:00,77.3,73.5,29.93,ENE,58,4.6,4.6,88,0.00,CLR,,0.00,WeatherDisplay:10.37,2013-05-22 12:44:00,
2013-05-22 08:49:00,77.6,73.8,29.93,ESE,104,2.3,2.3,88,0.00,CLR,,0.00,WeatherDisplay:10.37,2013-05-22 12:49:00,
2013-05-22 08:54:00,77.8,73.6,29.94,ENE,61,4.6,4.6,87,0.00,CLR,,0.00,WeatherDisplay:10.37,2013-05-22 12:54:00,
2013-05-22 08:59:00,78.0,73.8,29.94,NE,35,5.8,5.8,87,0.00,CLR,,0.00,WeatherDisplay:10.37,2013-05-22 12:59:00,
2013-05-22 09:04:00,78.1,73.9,29.94,NE,53,5.8,5.8,87,0.00,CLR,,0.00,WeatherDisplay:10.37,2013-05-22 13:04:00,
2013-05-22 09:10:00,78.5,74.3,29.94,ESE,102,3.5,3.5,87,0.00,CLR,,0.00,WeatherDisplay:10.37,2013-05-22 13:10:00,
2013-05-22 09:15:00,79.0,74.5,29.94,ENE,71,4.6,4.6,86,0.00,CLR,,0.00,WeatherDisplay:10.37,2013-05-22 13:15:00,
2013-05-22 09:20:00,79.2,74.6,29.94,ENE,58,3.5,3.5,86,0.00,CLR,,0.00,WeatherDisplay:10.37,2013-05-22 13:20:00,
2013-05-22 09:25:00,79.8,74.9,29.94,NE,44,3.5,3.5,85,0.00,CLR,,0.00,WeatherDisplay:10.37,2013-05-22 13:25:00,
2013-05-22 09:30:00,80.2,75.3,29.94,NE,39,3.5,3.5,85,0.00,CLR,,0.00,WeatherDisplay:10.37,2013-05-22 13:30:00,
2013-05-22 09:36:00,80.4,75.1,29.94,NE,47,3.5,3.5,84,0.00,CLR,,0.00,WeatherDisplay:10.37,2013-05-22 13:36:00,
2013-05-22 09:41:00,81.6,75.9,29.94,NNE,23,2.3,2.3,83,0.00,CLR,,0.00,WeatherDisplay:10.37,2013-05-22 13:41:00,
2013-05-22 09:46:00,82.0,75.2,29.94,East,96,3.5,3.5,80,0.00,CLR,,0.00,WeatherDisplay:10.37,2013-05-22 13:46:00,
2013-05-22 09:51:00,82.6,75.8,29.94,ESE,113,3.5,3.5,80,0.00,CLR,,0.00,WeatherDisplay:10.37,2013-05-22 13:51:00,
2013-05-22 09:56:00,83.7,76.5,29.94,SE,130,2.3,2.3,79,0.00,CLR,,0.00,WeatherDisplay:10.37,2013-05-22 13:56:00,
2013-05-22 10:01:00,83.9,75.5,29.94,ESE,113,3.5,3.5,76,0.00,CLR,,0.00,WeatherDisplay:10.37,2013-05-22 14:01:00,
2013-05-22 10:07:00,83.9,75.5,29.94,SE,131,5.8,5.8,76,0.00,CLR,,0.00,WeatherDisplay:10.37,2013-05-22 14:07:00,
2013-05-22 10:12:00,84.6,75.8,29.94,SSW,197,2.3,2.3,75,0.00,CLR,,0.00,WeatherDisplay:10.37,2013-05-22 14:12:00,
2013-05-22 10:17:00,85.7,75.6,29.94,SW,221,3.5,3.5,72,0.00,CLR,,0.00,WeatherDisplay:10.37,2013-05-22 14:17:00,
2013-05-22 10:22:00,86.0,75.9,29.94,SW,218,1.2,1.2,72,0.00,CLR,,0.00,WeatherDisplay:10.37,2013-05-22 14:22:00,
2013-05-22 10:27:00,86.1,74.7,29.94,SSE,158,3.5,3.5,69,0.00,CLR,,0.00,WeatherDisplay:10.37,2013-05-22 14:27:00,
2013-05-22 10:32:00,86.3,75.4,29.95,SE,140,6.0,6.0,70,0.00,CLR,,0.00,WeatherDisplay:10.37,2013-05-22 14:32:00,
2013-05-22 10:37:00,86.6,76.1,29.95,SSW,211,3.5,3.5,71,0.00,CLR,,0.00,WeatherDisplay:10.37,2013-05-22 14:37:00,
2013-05-22 10:42:00,87.4,75.5,29.95,SSW,212,5.8,5.8,68,0.00,CLR,,0.00,WeatherDisplay:10.37,2013-05-22 14:42:00,
2013-05-22 10:47:00,87.0,75.2,29.95,SW,228,3.5,3.5,68,0.00,CLR,,0.00,WeatherDisplay:10.37,2013-05-22 14:47:00,
2013-05-22 10:52:00,86.9,75.1,29.95,SSE,148,6.9,6.9,68,0.00,CLR,,0.00,WeatherDisplay:10.37,2013-05-22 14:52:00,
2013-05-22 10:57:00,86.8,75.0,29.95,SE,139,5.8,5.8,68,0.00,CLR,,0.00,WeatherDisplay:10.37,2013-05-22 14:57:00,
2013-05-22 11:02:00,87.4,75.5,29.95,SSE,148,3.5,3.5,68,0.00,CLR,,0.00,WeatherDisplay:10.37,2013-05-22 15:02:00,
2013-05-22 11:07:00,87.9,75.6,29.95,SSW,210,3.5,3.5,67,0.00,CLR,,0.00,WeatherDisplay:10.37,2013-05-22 15:07:00,
2013-05-22 11:12:00,88.2,75.9,29.96,SSW,210,3.5,3.5,67,0.00,CLR,,0.00,WeatherDisplay:10.37,2013-05-22 15:12:00,
2013-05-22 11:18:00,88.1,75.8,29.95,WSW,238,3.5,3.5,67,0.00,CLR,,0.00,WeatherDisplay:10.37,2013-05-22 15:18:00,
2013-05-22 11:23:00,88.6,76.2,29.95,SW,232,3.5,3.5,67,0.00,CLR,,0.00,WeatherDisplay:10.37,2013-05-22 15:23:00,
2013-05-22 11:28:00,89.1,74.4,29.96,SE,140,6.9,6.9,62,0.00,CLR,,0.00,WeatherDisplay:10.37,2013-05-22 15:28:00,
2013-05-22 11:33:00,89.2,75.9,29.95,WSW,238,4.6,4.6,65,0.00,CLR,,0.00,WeatherDisplay:10.37,2013-05-22 15:33:00,
2013-05-22 11:38:00,89.9,76.1,29.96,SW,235,1.2,1.2,64,0.00,CLR,,0.00,WeatherDisplay:10.37,2013-05-22 15:38:00,
2013-05-22 11:43:00,89.8,76.0,29.96,SW,226,2.3,0.0,64,0.00,CLR,,0.00,WeatherDisplay:10.37,2013-05-22 15:43:00,
2013-05-22 11:48:00,90.0,76.2,29.96,SW,232,3.5,3.5,64,0.00,CLR,,0.00,WeatherDisplay:10.37,2013-05-22 15:48:00,
2013-05-22 11:54:00,89.1,75.3,29.95,ESE,122,2.3,2.3,64,0.00,CLR,,0.00,WeatherDisplay:10.37,2013-05-22 15:54:00,
2013-05-22 11:59:00,89.1,75.8,29.95,WSW,240,4.6,4.6,65,0.00,CLR,,0.00,WeatherDisplay:10.37,2013-05-22 15:59:00,
2013-05-22 12:04:00,89.2,75.4,29.95,SSW,211,3.0,3.0,64,0.00,CLR,,0.00,WeatherDisplay:10.37,2013-05-22 16:04:00,
2013-05-22 12:10:00,89.9,75.1,29.95,South,186,4.6,4.6,62,0.00,CLR,,0.00,WeatherDisplay:10.37,2013-05-22 16:10:00,
2013-05-22 12:15:00,90.5,75.7,29.95,SSW,208,4.6,4.6,62,0.00,CLR,,0.00,WeatherDisplay:10.37,2013-05-22 16:15:00,
2013-05-22 12:20:00,90.3,75.5,29.95,SSW,211,5.8,5.8,62,0.00,CLR,,0.00,WeatherDisplay:10.37,2013-05-22 16:20:00,
2013-05-22 12:25:00,89.2,75.9,29.95,SE,132,3.5,3.5,65,0.00,CLR,,0.00,WeatherDisplay:10.37,2013-05-22 16:25:00,
2013-05-22 12:30:00,89.4,75.6,29.95,WSW,250,2.3,2.3,64,0.00,CLR,,0.00,WeatherDisplay:10.37,2013-05-22 16:30:00,
2013-05-22 12:35:00,89.4,75.6,29.95,SW,217,4.6,4.6,64,0.00,CLR,,0.00,WeatherDisplay:10.37,2013-05-22 16:35:00,
2013-05-22 12:40:00,89.7,75.9,29.95,SE,132,4.0,4.0,64,0.00,CLR,,0.00,WeatherDisplay:10.37,2013-05-22 16:40:00,
2013-05-22 12:45:00,90.1,75.3,29.95,NNW,340,4.6,4.6,62,0.00,CLR,,0.00,WeatherDisplay:10.37,2013-05-22 16:45:00,
2013-05-22 12:51:00,90.1,75.3,29.95,SSW,205,3.5,3.9,62,0.00,CLR,,0.00,WeatherDisplay:10.37,2013-05-22 16:51:00,
2013-05-22 12:56:00,90.1,75.8,29.95,ESE,122,5.8,5.8,63,0.00,CLR,,0.00,WeatherDisplay:10.37,2013-05-22 16:56:00,
2013-05-22 13:01:00,90.0,75.7,29.95,SE,131,5.8,5.8,63,0.00,CLR,,0.00,WeatherDisplay:10.37,2013-05-22 17:01:00,
2013-05-22 13:06:00,89.9,75.1,29.94,WSW,243,5.8,5.8,62,0.00,CLR,,0.00,WeatherDisplay:10.37,2013-05-22 17:06:00,
2013-05-22 13:11:00,89.8,76.0,29.94,South,189,3.5,3.5,64,0.00,CLR,,0.00,WeatherDisplay:10.37,2013-05-22 17:11:00,
2013-05-22 13:16:00,90.2,76.4,29.94,South,174,3.5,3.5,64,0.00,CLR,,0.00,WeatherDisplay:10.37,2013-05-22 17:16:00,
2013-05-22 13:21:00,89.8,75.5,29.94,WSW,250,5.8,5.8,63,0.00,CLR,,0.00,WeatherDisplay:10.37,2013-05-22 17:21:00,
2013-05-22 13:27:00,89.1,75.8,29.94,South,191,8.1,8.1,65,0.00,CLR,,0.00,WeatherDisplay:10.37,2013-05-22 17:27:00,
2013-05-22 13:32:00,89.1,75.3,29.94,WNW,283,3.5,3.5,64,0.00,CLR,,0.00,WeatherDisplay:10.37,2013-05-22 17:32:00,
2013-05-22 13:37:00,89.2,75.9,29.94,WSW,243,3.5,3.5,65,0.00,CLR,,0.00,WeatherDisplay:10.37,2013-05-22 17:37:00,
2013-05-22 13:42:00,89.4,76.1,29.93,South,169,5.8,5.8,65,0.00,CLR,,0.00,WeatherDisplay:10.37,2013-05-22 17:42:00,
2013-05-22 13:48:00,90.1,75.8,29.94,WSW,253,5.8,5.8,63,0.00,CLR,,0.00,WeatherDisplay:10.37,2013-05-22 17:48:00,
2013-05-22 13:53:00,90.0,75.7,29.94,SSW,212,4.6,4.6,63,0.00,CLR,,0.00,WeatherDisplay:10.37,2013-05-22 17:53:00,
2013-05-22 13:58:00,90.0,75.7,29.93,West,274,5.8,5.8,63,0.00,CLR,,0.00,WeatherDisplay:10.37,2013-05-22 17:58:00,
2013-05-22 14:03:00,89.5,75.7,29.93,ESE,112,3.5,3.5,64,0.00,CLR,,0.00,WeatherDisplay:10.37,2013-05-22 18:03:00,
2013-05-22 14:08:00,89.8,76.0,29.93,SE,130,3.5,3.5,64,0.00,CLR,,0.00,WeatherDisplay:10.37,2013-05-22 18:08:00,
2013-05-22 14:13:00,89.9,75.6,29.93,West,267,4.6,4.6,63,0.00,CLR,,0.00,WeatherDisplay:10.37,2013-05-22 18:13:00,
2013-05-22 14:19:00,90.1,74.8,29.93,ENE,77,4.0,4.0,61,0.00,CLR,,0.00,WeatherDisplay:10.37,2013-05-22 18:19:00,
2013-05-22 14:24:00,90.0,75.7,29.93,SE,126,4.6,4.6,63,0.00,CLR,,0.00,WeatherDisplay:10.37,2013-05-22 18:24:00,
2013-05-22 14:29:00,90.0,75.7,29.93,West,262,4.6,4.6,63,0.00,CLR,,0.00,WeatherDisplay:10.37,2013-05-22 18:29:00,
2013-05-22 14:34:00,89.6,75.3,29.93,WSW,243,4.6,4.6,63,0.00,CLR,,0.00,WeatherDisplay:10.37,2013-05-22 18:34:00,
2013-05-22 14:39:00,89.4,74.7,29.93,SW,219,5.8,5.8,62,0.00,CLR,,0.00,WeatherDisplay:10.37,2013-05-22 18:39:00,
2013-05-22 14:44:00,90.2,76.4,29.92,WSW,243,3.0,3.0,64,0.00,CLR,,0.00,WeatherDisplay:10.37,2013-05-22 18:44:00,
2013-05-22 14:49:00,90.4,76.6,29.92,NNW,346,3.5,3.5,64,0.00,CLR,,0.00,WeatherDisplay:10.37,2013-05-22 18:49:00,
2013-05-22 14:54:00,90.1,76.3,29.92,South,184,4.6,4.6,64,0.00,CLR,,0.00,WeatherDisplay:10.37,2013-05-22 18:54:00,
2013-05-22 14:59:00,90.0,75.7,29.92,WSW,248,3.5,3.5,63,0.00,CLR,,0.00,WeatherDisplay:10.37,2013-05-22 18:59:00,
2013-05-22 15:04:00,90.1,76.3,29.92,ESE,117,4.0,4.0,64,0.00,CLR,,0.00,WeatherDisplay:10.37,2013-05-22 19:04:00,
2013-05-22 15:09:00,90.3,74.5,29.92,NNW,338,4.6,4.6,60,0.00,CLR,,0.00,WeatherDisplay:10.37,2013-05-22 19:09:00,
2013-05-22 15:15:00,90.3,75.5,29.92,SSW,194,6.9,6.9,62,0.00,CLR,,0.00,WeatherDisplay:10.37,2013-05-22 19:15:00,
2013-05-22 15:20:00,90.2,74.9,29.92,NE,36,5.8,5.8,61,0.00,CLR,,0.00,WeatherDisplay:10.37,2013-05-22 19:20:00,
2013-05-22 15:25:00,89.7,75.4,29.91,SW,221,6.0,6.0,63,0.00,CLR,,0.00,WeatherDisplay:10.37,2013-05-22 19:25:00,
2013-05-22 15:30:00,90.2,75.4,29.91,SSE,148,5.8,5.8,62,0.00,CLR,,0.00,WeatherDisplay:10.37,2013-05-22 19:30:00,
2013-05-22 15:35:00,90.2,74.9,29.91,WSW,250,4.6,4.6,61,0.00,CLR,,0.00,WeatherDisplay:10.37,2013-05-22 19:35:00,
2013-05-22 15:41:00,90.3,76.0,29.91,SSW,204,4.0,4.0,63,0.00,CLR,,0.00,WeatherDisplay:10.37,2013-05-22 19:41:00,
2013-05-22 15:46:00,90.5,75.7,29.91,WSW,246,5.8,5.8,62,0.00,CLR,,0.00,WeatherDisplay:10.37,2013-05-22 19:46:00,
2013-05-22 15:51:00,90.1,76.3,29.91,West,277,5.8,5.8,64,0.00,CLR,,0.00,WeatherDisplay:10.37,2013-05-22 19:51:00,
2013-05-22 15:56:00,89.8,75.5,29.90,North,353,3.5,3.5,63,0.00,CLR,,0.00,WeatherDisplay:10.37,2013-05-22 19:56:00,
2013-05-22 16:01:00,89.4,75.1,29.91,SW,232,5.8,5.8,63,0.00,CLR,,0.00,WeatherDisplay:10.37,2013-05-22 20:01:00,
2013-05-22 16:06:00,89.3,75.5,29.91,SSW,210,6.9,6.9,64,0.00,CLR,,0.00,WeatherDisplay:10.37,2013-05-22 20:06:00,
2013-05-22 16:11:00,89.4,75.1,29.91,WNW,287,4.6,4.8,63,0.00,CLR,,0.00,WeatherDisplay:10.37,2013-05-22 20:11:00,
2013-05-22 16:17:00,89.1,75.8,29.90,WNW,285,6.9,6.9,65,0.00,CLR,,0.00,WeatherDisplay:10.37,2013-05-22 20:17:00,
2013-05-22 16:22:00,89.3,75.0,29.90,South,172,4.6,4.6,63,0.00,CLR,,0.00,WeatherDisplay:10.37,2013-05-22 20:22:00,
2013-05-22 16:27:00,89.1,75.3,29.90,WSW,250,8.1,8.1,64,0.00,CLR,,0.00,WeatherDisplay:10.37,2013-05-22 20:27:00,
2013-05-22 16:32:00,88.6,75.3,29.90,South,170,4.6,4.6,65,0.00,CLR,,0.00,WeatherDisplay:10.37,2013-05-22 20:32:00,
2013-05-22 16:37:00,88.0,76.1,29.90,SSE,150,3.5,3.5,68,0.00,CLR,,0.00,WeatherDisplay:10.37,2013-05-22 20:37:00,
2013-05-22 16:42:00,88.1,75.8,29.89,SE,126,1.2,1.3,67,0.00,CLR,,0.00,WeatherDisplay:10.37,2013-05-22 20:42:00,
2013-05-22 16:47:00,88.5,75.7,29.89,SW,231,5.8,5.8,66,0.00,CLR,,0.00,WeatherDisplay:10.37,2013-05-22 20:47:00,
2013-05-22 16:52:00,88.3,75.0,29.89,WNW,302,6.9,6.9,65,0.00,CLR,,0.00,WeatherDisplay:10.37,2013-05-22 20:52:00,
2013-05-22 16:57:00,88.1,75.8,29.89,SW,224,3.5,3.5,67,0.00,CLR,,0.00,WeatherDisplay:10.37,2013-05-22 20:57:00,
2013-05-22 17:03:00,87.8,75.5,29.89,SSW,200,8.1,8.1,67,0.00,CLR,,0.00,WeatherDisplay:10.37,2013-05-22 21:03:00,
2013-05-22 17:08:00,87.6,74.8,29.89,SW,228,4.6,4.6,66,0.00,CLR,,0.00,WeatherDisplay:10.37,2013-05-22 21:08:00,
2013-05-22 17:13:00,87.8,75.5,29.89,WSW,246,3.5,3.5,67,0.00,CLR,,0.00,WeatherDisplay:10.37,2013-05-22 21:13:00,
2013-05-22 17:18:00,88.1,74.8,29.89,SW,222,6.9,6.9,65,0.00,CLR,,0.00,WeatherDisplay:10.37,2013-05-22 21:18:00,
2013-05-22 17:23:00,87.4,75.1,29.89,ESE,117,4.6,4.6,67,0.00,CLR,,0.00,WeatherDisplay:10.37,2013-05-22 21:23:00,
2013-05-22 17:28:00,87.1,75.3,29.89,SW,219,4.0,4.0,68,0.00,CLR,,0.00,WeatherDisplay:10.37,2013-05-22 21:28:00,
2013-05-22 17:33:00,87.3,75.0,29.89,NW,307,3.5,3.5,67,0.00,CLR,,0.00,WeatherDisplay:10.37,2013-05-22 21:33:00,
2013-05-22 17:39:00,87.4,75.1,29.90,NNE,12,4.6,4.6,67,0.00,CLR,,0.00,WeatherDisplay:10.37,2013-05-22 21:39:00,
2013-05-22 17:44:00,87.1,74.8,29.90,NW,315,4.6,4.6,67,0.00,CLR,,0.00,WeatherDisplay:10.37,2013-05-22 21:44:00,
2013-05-22 17:49:00,86.6,74.3,29.90,WNW,297,4.6,4.6,67,0.00,CLR,,0.00,WeatherDisplay:10.37,2013-05-22 21:49:00,
2013-05-22 17:54:00,86.3,74.9,29.90,SW,218,6.0,6.0,69,0.00,CLR,,0.00,WeatherDisplay:10.37,2013-05-22 21:54:00,
2013-05-22 17:59:00,86.3,74.9,29.90,NW,319,4.0,4.0,69,0.00,CLR,,0.00,WeatherDisplay:10.37,2013-05-22 21:59:00,
2013-05-22 18:04:00,85.7,75.2,29.90,NNE,18,2.3,2.3,71,0.00,CLR,,0.00,WeatherDisplay:10.37,2013-05-22 22:04:00,
2013-05-22 18:09:00,85.7,75.2,29.91,WNW,294,2.3,2.3,71,0.00,CLR,,0.00,WeatherDisplay:10.37,2013-05-22 22:09:00,
2013-05-22 18:14:00,85.2,75.1,29.91,NW,307,5.0,5.0,72,0.00,CLR,,0.00,WeatherDisplay:10.37,2013-05-22 22:14:00,
2013-05-22 18:19:00,85.3,75.2,29.91,SSW,194,3.5,3.5,72,0.00,CLR,,0.00,WeatherDisplay:10.37,2013-05-22 22:19:00,
2013-05-22 18:24:00,84.9,74.4,29.92,WNW,302,8.1,8.1,71,0.00,CLR,,0.00,WeatherDisplay:10.37,2013-05-22 22:24:00,
2013-05-22 18:29:00,84.2,74.6,29.92,NW,319,4.6,4.6,73,0.00,CLR,,0.00,WeatherDisplay:10.37,2013-05-22 22:29:00,
2013-05-22 18:34:00,84.4,74.8,29.92,WNW,283,3.5,3.5,73,0.00,CLR,,0.00,WeatherDisplay:10.37,2013-05-22 22:34:00,
2013-05-22 18:40:00,84.2,75.0,29.92,WNW,302,3.5,3.5,74,0.00,CLR,,0.00,WeatherDisplay:10.37,2013-05-22 22:40:00,
2013-05-22 18:45:00,84.2,75.0,29.92,West,264,4.6,4.6,74,0.00,CLR,,0.00,WeatherDisplay:10.37,2013-05-22 22:45:00,
2013-05-22 18:50:00,83.9,74.7,29.92,NNW,340,6.9,6.9,74,0.00,CLR,,0.00,WeatherDisplay:10.37,2013-05-22 22:50:00,
2013-05-22 18:55:00,83.5,74.3,29.92,NNW,330,3.5,3.5,74,0.00,CLR,,0.00,WeatherDisplay:10.37,2013-05-22 22:55:00,
2013-05-22 19:00:00,83.2,74.0,29.92,WNW,284,4.6,4.6,74,0.00,CLR,,0.00,WeatherDisplay:10.37,2013-05-22 23:00:00,
2013-05-22 19:05:00,82.9,74.2,29.91,NW,308,3.5,3.5,75,0.00,CLR,,0.00,WeatherDisplay:10.37,2013-05-22 23:05:00,
2013-05-22 19:10:00,82.8,74.1,29.92,NW,316,3.5,3.5,75,0.00,CLR,,0.00,WeatherDisplay:10.37,2013-05-22 23:10:00,
2013-05-22 19:15:00,82.7,74.0,29.91,NW,304,3.5,3.5,75,0.00,CLR,,0.00,WeatherDisplay:10.37,2013-05-22 23:15:00,
2013-05-22 19:20:00,82.4,73.7,29.91,NW,319,3.5,3.5,75,0.00,CLR,,0.00,WeatherDisplay:10.37,2013-05-22 23:20:00,
2013-05-22 19:25:00,82.2,73.5,29.91,SW,235,1.2,1.2,75,0.00,CLR,,0.00,WeatherDisplay:10.37,2013-05-22 23:25:00,
2013-05-22 19:31:00,81.9,72.8,29.91,WSW,253,3.5,3.5,74,0.00,CLR,,0.00,WeatherDisplay:10.37,2013-05-22 23:31:00,
2013-05-22 19:36:00,81.7,72.6,29.91,West,276,0.0,0.0,74,0.00,CLR,,0.00,WeatherDisplay:10.37,2013-05-22 23:36:00,
2013-05-22 19:41:00,81.6,72.5,29.91,WNW,291,1.2,1.2,74,0.00,CLR,,0.00,WeatherDisplay:10.37,2013-05-22 23:41:00,
2013-05-22 19:46:00,81.3,72.6,29.91,WNW,294,0.0,0.0,75,0.00,CLR,,0.00,WeatherDisplay:10.37,2013-05-22 23:46:00,
2013-05-22 19:52:00,81.0,72.7,29.91,NNW,332,0.0,0.0,76,0.00,CLR,,0.00,WeatherDisplay:10.37,2013-05-22 23:52:00,
2013-05-22 19:57:00,80.8,72.5,29.91,NE,47,1.2,1.2,76,0.00,CLR,,0.00,WeatherDisplay:10.37,2013-05-22 23:57:00,
2013-05-22 20:02:00,80.5,72.6,29.91,North,350,1.2,1.2,77,0.00,CLR,,0.00,WeatherDisplay:10.37,2013-05-23 00:02:00,
2013-05-22 20:07:00,80.3,72.8,29.91,WNW,294,0.0,0.1,78,0.00,CLR,,0.00,WeatherDisplay:10.37,2013-05-23 00:07:00,
2013-05-22 20:12:00,79.9,72.8,29.91,WNW,294,0.0,0.0,79,0.00,CLR,,0.00,WeatherDisplay:10.37,2013-05-23 00:12:00,
2013-05-22 20:17:00,79.5,72.8,29.91,WNW,294,0.0,0.0,80,0.00,CLR,,0.00,WeatherDisplay:10.37,2013-05-23 00:17:00,
2013-05-22 20:23:00,79.2,72.9,29.91,WNW,290,0.0,0.0,81,0.00,CLR,,0.00,WeatherDisplay:10.37,2013-05-23 00:23:00,
2013-05-22 20:28:00,78.9,72.6,29.92,WNW,290,0.0,0.0,81,0.00,CLR,,0.00,WeatherDisplay:10.37,2013-05-23 00:28:00,
2013-05-22 20:33:00,78.7,72.7,29.92,WNW,291,2.3,2.3,82,0.00,CLR,,0.00,WeatherDisplay:10.37,2013-05-23 00:33:00,
2013-05-22 20:38:00,78.6,72.3,29.92,NNE,23,4.0,4.0,81,0.00,CLR,,0.00,WeatherDisplay:10.37,2013-05-23 00:38:00,
2013-05-22 20:43:00,78.5,72.2,29.92,NW,311,3.5,3.5,81,0.00,CLR,,0.00,WeatherDisplay:10.37,2013-05-23 00:43:00,
2013-05-22 20:48:00,78.3,72.0,29.92,NW,316,3.5,3.5,81,0.00,CLR,,0.00,WeatherDisplay:10.37,2013-05-23 00:48:00,
2013-05-22 20:54:00,78.1,71.8,29.92,NW,319,1.2,1.2,81,0.00,CLR,,0.00,WeatherDisplay:10.37,2013-05-23 00:54:00,
2013-05-22 20:59:00,77.9,72.0,29.93,NW,322,3.5,3.5,82,0.00,CLR,,0.00,WeatherDisplay:10.37,2013-05-23 00:59:00,
2013-05-22 21:04:00,77.8,71.9,29.93,NNW,328,2.3,2.3,82,0.00,CLR,,0.00,WeatherDisplay:10.37,2013-05-23 01:04:00,
2013-05-22 21:09:00,77.6,71.7,29.93,NNW,342,1.2,0.0,82,0.00,CLR,,0.00,WeatherDisplay:10.37,2013-05-23 01:09:00,
2013-05-22 21:15:00,77.5,71.9,29.93,NNW,342,2.3,2.3,83,0.00,CLR,,0.00,WeatherDisplay:10.37,2013-05-23 01:15:00,
2013-05-22 21:20:00,77.4,71.8,29.94,NNW,328,2.3,2.3,83,0.00,CLR,,0.00,WeatherDisplay:10.37,2013-05-23 01:20:00,
2013-05-22 21:25:00,77.3,71.7,29.94,NNE,23,1.2,1.2,83,0.00,CLR,,0.00,WeatherDisplay:10.37,2013-05-23 01:25:00,
2013-05-22 21:30:00,77.4,71.8,29.94,NNE,20,0.0,0.0,83,0.00,CLR,,0.00,WeatherDisplay:10.37,2013-05-23 01:30:00,
2013-05-22 21:35:00,77.3,71.7,29.94,NNE,20,0.0,0.0,83,0.00,CLR,,0.00,WeatherDisplay:10.37,2013-05-23 01:35:00,
2013-05-22 21:41:00,77.1,71.9,29.94,NNE,20,0.0,0.0,84,0.00,CLR,,0.00,WeatherDisplay:10.37,2013-05-23 01:41:00,
2013-05-22 21:46:00,76.8,71.6,29.94,NNE,20,0.0,0.0,84,0.00,CLR,,0.00,WeatherDisplay:10.37,2013-05-23 01:46:00,
2013-05-22 21:51:00,76.4,71.6,29.94,NNE,20,0.0,0.0,85,0.00,CLR,,0.00,WeatherDisplay:10.37,2013-05-23 01:51:00,
2013-05-22 21:56:00,76.1,71.6,29.94,NNE,20,0.0,0.0,86,0.00,CLR,,0.00,WeatherDisplay:10.37,2013-05-23 01:56:00,
2013-05-22 22:01:00,75.8,71.3,29.95,NNE,20,0.0,0.0,86,0.00,CLR,,0.00,WeatherDisplay:10.37,2013-05-23 02:01:00,
2013-05-22 22:06:00,75.7,71.6,29.95,NNE,20,0.0,0.0,87,0.00,CLR,,0.00,WeatherDisplay:10.37,2013-05-23 02:06:00,
2013-05-22 22:11:00,75.5,71.4,29.95,NNE,20,0.0,0.0,87,0.00,CLR,,0.00,WeatherDisplay:10.37,2013-05-23 02:11:00,
2013-05-22 22:16:00,75.3,71.2,29.95,NNE,20,0.0,0.0,87,0.00,CLR,,0.00,WeatherDisplay:10.37,2013-05-23 02:16:00,
2013-05-22 22:21:00,75.1,71.3,29.95,NNE,20,0.0,0.0,88,0.00,CLR,,0.00,WeatherDisplay:10.37,2013-05-23 02:21:00,
2013-05-22 22:26:00,75.1,71.3,29.95,NNE,20,0.0,0.0,88,0.00,CLR,,0.00,WeatherDisplay:10.37,2013-05-23 02:26:00,
2013-05-22 22:31:00,75.0,71.2,29.95,NNE,20,0.0,0.0,88,0.00,CLR,,0.00,WeatherDisplay:10.37,2013-05-23 02:31:00,
2013-05-22 22:36:00,74.9,71.4,29.95,NNE,20,0.0,0.0,89,0.00,CLR,,0.00,WeatherDisplay:10.37,2013-05-23 02:36:00,
2013-05-22 22:41:00,74.6,71.1,29.95,NNE,20,0.0,0.0,89,0.00,CLR,,0.00,WeatherDisplay:10.37,2013-05-23 02:41:00,
2013-05-22 22:47:00,74.7,71.9,29.95,NNE,20,0.0,0.0,91,0.00,CLR,,0.00,WeatherDisplay:10.37,2013-05-23 02:47:00,
2013-05-22 22:52:00,74.5,71.7,29.95,NNE,20,0.0,0.0,91,0.00,CLR,,0.00,WeatherDisplay:10.37,2013-05-23 02:52:00,
2013-05-22 22:57:00,74.4,71.6,29.95,NE,53,6.9,6.9,91,0.00,CLR,,0.00,WeatherDisplay:10.37,2013-05-23 02:57:00,
2013-05-22 23:02:00,74.9,71.8,29.95,NNE,25,3.5,3.5,90,0.00,CLR,,0.00,WeatherDisplay:10.37,2013-05-23 03:02:00,
2013-05-22 23:07:00,75.0,71.9,29.95,NE,46,3.5,3.5,90,0.00,CLR,,0.00,WeatherDisplay:10.37,2013-05-23 03:07:00,
2013-05-22 23:13:00,75.0,71.9,29.95,NNW,346,1.2,1.2,90,0.00,CLR,,0.00,WeatherDisplay:10.37,2013-05-23 03:13:00,
2013-05-22 23:18:00,74.9,71.8,29.95,NNE,13,0.0,0.0,90,0.00,CLR,,0.00,WeatherDisplay:10.37,2013-05-23 03:18:00,
2013-05-22 23:23:00,74.8,71.7,29.95,NE,39,2.3,2.3,90,0.00,CLR,,0.00,WeatherDisplay:10.37,2013-05-23 03:23:00,
2013-05-22 23:28:00,74.7,71.6,29.95,NE,39,0.0,0.0,90,0.00,CLR,,0.00,WeatherDisplay:10.37,2013-05-23 03:28:00,
2013-05-22 23:33:00,74.6,71.5,29.95,NE,39,0.0,0.0,90,0.00,CLR,,0.00,WeatherDisplay:10.37,2013-05-23 03:33:00,
2013-05-22 23:38:00,74.4,71.6,29.95,NE,39,0.0,0.0,91,0.00,CLR,,0.00,WeatherDisplay:10.37,2013-05-23 03:38:00,
2013-05-22 23:43:00,74.3,71.5,29.95,NNE,29,1.2,1.2,91,0.00,CLR,,0.00,WeatherDisplay:10.37,2013-05-23 03:43:00,
2013-05-22 23:48:00,74.2,71.4,29.95,NNE,29,1.2,0.0,91,0.00,CLR,,0.00,WeatherDisplay:10.37,2013-05-23 03:48:00,
2013-05-22 23:54:00,74.1,71.3,29.95,NNW,346,0.0,0.0,91,0.00,CLR,,0.00,WeatherDisplay:10.37,2013-05-23 03:54:00,
2013-05-22 23:59:00,74.0,71.2,29.95,NNE,17,0.0,0.0,91,0.00,CLR,,0.00,WeatherDisplay:10.37,2013-05-23 03:59:00,